Regional Weather Roundup
Issued by NWS

Home | Current Version | Previous Version | Graphics & Text | Print | Product List | Glossary On
Versions: 1 2 3 4 5 6 7 8 9 10 11 12 13 14 15 16 17 18 19 20 21 22 23 24 25 26 27
000
ASUS45 KCYS 221610
RWRWY

WYOMING REGIONAL WEATHER ROUNDUP
NATIONAL WEATHER SERVICE CHEYENNE WY
1000 AM MDT TUE MAY 22 2018

NOTE:  "FAIR" INDICATES FEW OR NO CLOUDS BELOW 12,000 FEET
WITH NO SIGNIFICANT WEATHER AND/OR OBSTRUCTIONS TO VISIBILITY.

WYZ001-221700-
YELLOWSTONE NATIONAL PARK

CITY           SKY/WX    TMP DP  RH WIND       PRES   REMARKS
LK YELLOWSTONE   N/A     43  36  76 SE3       30.17S
W YELLOWSTONE  NOT AVBL

$$
WYZ002>013-054>058-071-098>099-221700-
NORTHERN WYOMING

CITY           SKY/WX    TMP DP  RH WIND       PRES   REMARKS
JACKSON        FAIR      51  39  63 CALM      30.09
CODY           FAIR      61  47  59 NE6       30.06F
GREYBULL       FAIR      64  49  57 VRB3      30.00S
WORLAND        FAIR      61  50  67 SW3       30.01F
SHERIDAN       FAIR      65  53  65 CALM      30.02S
BUFFALO        FAIR      64  47  53 E5        30.06S
GILLETTE       FAIR      68  53  58 N9        30.01F
NEWCASTLE      FAIR      72  43  35 W5        30.02R

$$
WYZ014>020-022>026-101>103-221700-
CENTRAL WYOMING

CITY           SKY/WX    TMP DP  RH WIND       PRES   REMARKS
BIG PINEY      FAIR      63  38  39 N10       30.05F
PINEDALE       PTSUNNY   61  36  39 NW9       30.06F
DUBOIS         FAIR      52  37  58 CALM      30.11S
LANDER         FAIR      58  46  64 CALM      30.04S
RIVERTON       FAIR      61  47  59 VRB3      30.05S
CASPER         FAIR      63  49  60 E7        30.02F
DOUGLAS        FAIR      65  55  70 SE7       30.02F

$$
WYZ021-027>030-104>119-221700-
SOUTHERN WYOMING

CITY           SKY/WX    TMP DP  RH WIND       PRES   REMARKS
EVANSTON       LGT RAIN  51  39  63 S8        30.09R
KEMMERER       FAIR      54  37  54 SW3       30.08S
FORT BRIDGER   FAIR      56  41  56 W3        30.09R
ROCK SPRINGS   CLOUDY    55  41  59 E14       30.05S
DIXON          FAIR      62  37  38 SW5       30.03F
RAWLINS        FAIR      64  43  46 NE8       30.03F
SARATOGA       FAIR      64  36  34 N5        30.04F
LARAMIE        FAIR      64  47  53 CALM      30.06F
CHEYENNE       FAIR      62  53  72 NE9       30.03F
TORRINGTON     FAIR      69  59  70 E7        29.95F
PINE BLUFFS    FAIR      59  55  88 NE6       30.00S

$$




USA.gov is the U.S. government's official web portal to all federal, state and local government web resources and services.